Time,TemperatureF,DewpointF,PressureIn,WindDirection,WindDirectionDegrees,WindSpeedMPH,WindSpeedGustMPH,Humidity,HourlyPrecipIn,Conditions,Clouds,dailyrainin,SolarRadiationWatts/m^2,SoftwareType,DateUTC
2013-04-16 00:00:00,21.3,15.2,30.07,North,2,1.0,1.0,77,0.00,,,0.01,0,Wunderground v.1.15,2013-04-16 06:00:00,
2013-04-16 00:05:00,21.2,15.1,30.07,North,2,1.0,1.0,77,0.00,,,0.00,0,Wunderground v.1.15,2013-04-16 06:05:00,
2013-04-16 00:10:00,21.2,15.4,30.06,North,2,0.0,0.0,78,0.00,,,0.00,0,Wunderground v.1.15,2013-04-16 06:10:00,
2013-04-16 00:15:00,21.2,15.1,30.05,North,2,0.0,0.0,77,0.00,,,0.00,0,Wunderground v.1.15,2013-04-16 06:15:00,
2013-04-16 00:25:00,21.2,15.4,30.04,North,2,0.0,0.0,78,0.00,,,0.00,0,Wunderground v.1.15,2013-04-16 06:25:00,
2013-04-16 00:30:00,21.3,15.8,30.05,North,2,0.0,0.0,79,0.00,,,0.00,0,Wunderground v.1.15,2013-04-16 06:30:00,
2013-04-16 00:40:00,21.4,16.2,30.05,North,2,0.0,0.0,80,0.00,,,0.00,0,Wunderground v.1.15,2013-04-16 06:40:00,
2013-04-16 00:45:00,21.5,16.3,30.05,NNE,14,0.0,0.0,80,0.00,,,0.00,0,Wunderground v.1.15,2013-04-16 06:45:00,
2013-04-16 00:55:00,21.3,16.4,30.06,NW,323,1.0,1.0,81,0.00,,,0.00,0,Wunderground v.1.15,2013-04-16 06:55:00,
2013-04-16 01:00:00,21.2,16.3,30.06,NW,324,1.0,1.0,81,0.00,,,0.00,0,Wunderground v.1.15,2013-04-16 07:00:00,
2013-04-16 01:10:00,20.8,16.2,30.07,NW,321,1.0,1.0,82,0.08,,,0.02,0,Wunderground v.1.15,2013-04-16 07:10:00,
2013-04-16 01:15:00,20.7,16.4,30.07,NW,321,1.0,3.0,83,0.08,,,0.02,0,Wunderground v.1.15,2013-04-16 07:15:00,
2013-04-16 01:25:00,20.6,16.3,30.07,NW,324,1.0,1.0,83,0.13,,,0.04,0,Wunderground v.1.15,2013-04-16 07:25:00,
2013-04-16 01:35:00,20.6,16.3,30.07,NW,324,1.0,2.0,83,0.13,,,0.06,0,Wunderground v.1.15,2013-04-16 07:35:00,
2013-04-16 01:45:00,20.4,16.1,30.08,NW,321,1.0,3.0,83,0.12,,,0.08,0,Wunderground v.1.15,2013-04-16 07:45:00,
2013-04-16 01:50:00,20.2,15.6,30.08,NW,317,1.0,1.0,82,0.07,,,0.08,0,Wunderground v.1.15,2013-04-16 07:50:00,
2013-04-16 02:00:00,19.9,15.3,30.09,NW,316,0.0,0.0,82,0.06,,,0.09,0,Wunderground v.1.15,2013-04-16 08:00:00,
2013-04-16 02:05:00,19.8,15.5,30.09,NW,317,0.0,0.0,83,0.04,,,0.09,0,Wunderground v.1.15,2013-04-16 08:05:00,
2013-04-16 02:15:00,19.7,15.4,30.08,NW,317,0.0,1.0,83,0.00,,,0.09,0,Wunderground v.1.15,2013-04-16 08:15:00,
2013-04-16 02:20:00,19.7,15.4,30.09,NW,317,0.0,0.0,83,0.00,,,0.09,0,Wunderground v.1.15,2013-04-16 08:20:00,
2013-04-16 02:25:00,19.7,15.4,30.09,NW,317,0.0,0.0,83,0.00,,,0.10,0,Wunderground v.1.15,2013-04-16 08:25:00,
2013-04-16 02:30:00,19.7,15.4,30.09,NW,316,1.0,1.0,83,0.00,,,0.10,0,Wunderground v.1.15,2013-04-16 08:30:00,
2013-04-16 02:40:00,19.7,15.4,30.09,NW,317,1.0,1.0,83,0.00,,,0.10,0,Wunderground v.1.15,2013-04-16 08:40:00,
2013-04-16 02:45:00,19.7,15.4,30.10,NW,317,0.0,1.0,83,0.00,,,0.10,0,Wunderground v.1.15,2013-04-16 08:45:00,
2013-04-16 02:55:00,19.6,15.3,30.10,NW,317,0.0,0.0,83,0.00,,,0.10,0,Wunderground v.1.15,2013-04-16 08:55:00,
2013-04-16 03:00:00,19.5,15.2,30.10,NW,317,0.0,0.0,83,0.00,,,0.10,0,Wunderground v.1.15,2013-04-16 09:00:00,
2013-04-16 03:10:00,19.5,15.2,30.10,NW,316,0.0,0.0,83,0.00,,,0.10,0,Wunderground v.1.15,2013-04-16 09:10:00,
2013-04-16 03:15:00,19.5,15.2,30.10,NW,316,0.0,0.0,83,0.00,,,0.10,0,Wunderground v.1.15,2013-04-16 09:15:00,
2013-04-16 03:20:00,19.5,15.5,30.10,NW,317,0.0,0.0,84,0.00,,,0.10,0,Wunderground v.1.15,2013-04-16 09:20:00,
2013-04-16 03:25:00,19.5,15.5,30.10,NW,317,0.0,0.0,84,0.00,,,0.10,0,Wunderground v.1.15,2013-04-16 09:25:00,
2013-04-16 03:35:00,19.4,15.1,30.10,NW,316,0.0,0.0,83,0.00,,,0.10,0,Wunderground v.1.15,2013-04-16 09:35:00,
2013-04-16 03:40:00,19.3,15.0,30.10,NW,317,0.0,0.0,83,0.00,,,0.10,0,Wunderground v.1.15,2013-04-16 09:40:00,
2013-04-16 03:45:00,19.3,15.3,30.10,NW,316,0.0,0.0,84,0.00,,,0.10,0,Wunderground v.1.15,2013-04-16 09:45:00,
2013-04-16 03:55:00,19.2,15.2,30.10,NW,316,0.0,0.0,84,0.00,,,0.11,0,Wunderground v.1.15,2013-04-16 09:55:00,
2013-04-16 04:00:00,19.1,15.1,30.10,NW,317,0.0,0.0,84,0.00,,,0.11,0,Wunderground v.1.15,2013-04-16 10:00:00,
2013-04-16 04:05:00,19.1,15.1,30.10,NW,317,0.0,0.0,84,0.00,,,0.11,0,Wunderground v.1.15,2013-04-16 10:05:00,
2013-04-16 04:10:00,18.9,14.9,30.11,NW,316,0.0,0.0,84,0.00,,,0.11,0,Wunderground v.1.15,2013-04-16 10:10:00,
2013-04-16 04:15:00,18.9,14.9,30.11,NW,317,0.0,0.0,84,0.00,,,0.11,0,Wunderground v.1.15,2013-04-16 10:15:00,
2013-04-16 04:25:00,18.8,14.8,30.11,NW,316,0.0,0.0,84,0.00,,,0.11,0,Wunderground v.1.15,2013-04-16 10:25:00,
2013-04-16 04:30:00,18.8,14.8,30.11,NW,317,0.0,0.0,84,0.00,,,0.11,0,Wunderground v.1.15,2013-04-16 10:30:00,
2013-04-16 04:35:00,18.8,14.8,30.10,NW,317,0.0,0.0,84,0.00,,,0.11,0,Wunderground v.1.15,2013-04-16 10:35:00,
2013-04-16 04:45:00,18.7,14.7,30.11,NW,317,0.0,0.0,84,0.00,,,0.11,0,Wunderground v.1.15,2013-04-16 10:45:00,
2013-04-16 04:55:00,18.7,14.7,30.11,NW,317,0.0,0.0,84,0.00,,,0.11,0,Wunderground v.1.15,2013-04-16 10:55:00,
2013-04-16 05:00:00,18.6,14.6,30.11,NW,317,0.0,0.0,84,0.00,,,0.11,0,Wunderground v.1.15,2013-04-16 11:00:00,
2013-04-16 05:05:00,18.6,14.6,30.10,NW,317,0.0,0.0,84,0.00,,,0.12,0,Wunderground v.1.15,2013-04-16 11:05:00,
2013-04-16 05:10:00,18.6,14.6,30.10,NW,316,0.0,0.0,84,0.00,,,0.12,0,Wunderground v.1.15,2013-04-16 11:10:00,
2013-04-16 05:15:00,18.6,14.6,30.10,NW,316,0.0,0.0,84,0.00,,,0.12,0,Wunderground v.1.15,2013-04-16 11:15:00,
2013-04-16 05:25:00,18.5,14.5,30.10,NW,317,0.0,0.0,84,0.00,,,0.12,0,Wunderground v.1.15,2013-04-16 11:25:00,
2013-04-16 05:30:00,18.5,14.5,30.10,NW,317,0.0,0.0,84,0.00,,,0.12,0,Wunderground v.1.15,2013-04-16 11:30:00,
2013-04-16 05:40:00,18.5,14.5,30.10,NW,316,0.0,0.0,84,0.00,,,0.12,0,Wunderground v.1.15,2013-04-16 11:40:00,
2013-04-16 05:45:00,18.4,14.4,30.10,NW,317,0.0,0.0,84,0.00,,,0.12,0,Wunderground v.1.15,2013-04-16 11:45:00,
2013-04-16 05:55:00,18.4,14.4,30.10,NW,316,0.0,0.0,84,0.00,,,0.12,0,Wunderground v.1.15,2013-04-16 11:55:00,
2013-04-16 06:00:00,18.4,14.4,30.10,NW,317,0.0,0.0,84,0.00,,,0.12,0,Wunderground v.1.15,2013-04-16 12:00:00,
2013-04-16 06:05:00,18.4,14.4,30.10,NW,317,0.0,0.0,84,0.00,,,0.12,0,Wunderground v.1.15,2013-04-16 12:05:00,
2013-04-16 06:10:00,18.4,14.4,30.10,NW,317,0.0,0.0,84,0.00,,,0.12,0,Wunderground v.1.15,2013-04-16 12:10:00,
2013-04-16 06:20:00,18.5,14.5,30.10,NW,316,0.0,0.0,84,0.00,,,0.12,0,Wunderground v.1.15,2013-04-16 12:20:00,
2013-04-16 06:30:00,18.5,14.5,30.10,NW,317,0.0,0.0,84,0.00,,,0.12,0,Wunderground v.1.15,2013-04-16 12:30:00,
2013-04-16 06:40:00,18.5,14.5,30.10,NW,317,0.0,0.0,84,0.00,,,0.13,0,Wunderground v.1.15,2013-04-16 12:40:00,
2013-04-16 06:45:00,18.5,14.5,30.10,NW,317,0.0,0.0,84,0.00,,,0.13,0,Wunderground v.1.15,2013-04-16 12:45:00,
2013-04-16 06:55:00,18.5,14.5,30.11,NW,317,0.0,0.0,84,0.00,,,0.13,5,Wunderground v.1.15,2013-04-16 12:55:00,
2013-04-16 07:00:00,18.5,14.5,30.11,NW,317,0.0,0.0,84,0.00,,,0.13,5,Wunderground v.1.15,2013-04-16 13:00:00,
2013-04-16 07:05:00,18.5,14.5,30.11,NW,317,0.0,0.0,84,0.00,,,0.14,7,Wunderground v.1.15,2013-04-16 13:05:00,
2013-04-16 07:10:00,18.5,14.5,30.11,NW,317,0.0,0.0,84,0.00,,,0.14,12,Wunderground v.1.15,2013-04-16 13:10:00,
2013-04-16 07:15:00,18.5,14.5,30.11,NW,317,0.0,0.0,84,0.00,,,0.14,16,Wunderground v.1.15,2013-04-16 13:15:00,
2013-04-16 07:25:00,18.7,14.7,30.11,NW,317,0.0,0.0,84,0.00,,,0.14,18,Wunderground v.1.15,2013-04-16 13:25:00,
2013-04-16 07:30:00,18.8,14.8,30.12,NW,317,0.0,0.0,84,0.00,,,0.14,19,Wunderground v.1.15,2013-04-16 13:30:00,
2013-04-16 07:35:00,19.0,15.0,30.11,NW,316,0.0,0.0,84,0.00,,,0.15,25,Wunderground v.1.15,2013-04-16 13:35:00,
2013-04-16 07:40:00,19.1,15.1,30.11,NW,316,0.0,0.0,84,0.00,,,0.15,33,Wunderground v.1.15,2013-04-16 13:40:00,
2013-04-16 07:50:00,19.4,15.1,30.12,NW,317,0.0,0.0,83,0.00,,,0.15,40,Wunderground v.1.15,2013-04-16 13:50:00,
2013-04-16 08:00:00,19.7,15.4,30.13,NW,317,0.0,0.0,83,0.00,,,0.16,40,Wunderground v.1.15,2013-04-16 14:00:00,
2013-04-16 08:10:00,20.0,15.4,30.13,NW,317,0.0,0.0,82,0.00,,,0.16,51,Wunderground v.1.15,2013-04-16 14:10:00,
2013-04-16 08:15:00,20.2,15.6,30.12,NW,317,0.0,0.0,82,0.00,,,0.16,58,Wunderground v.1.15,2013-04-16 14:15:00,
2013-04-16 08:25:00,20.5,15.9,30.13,NW,317,0.0,0.0,82,0.00,,,0.17,67,Wunderground v.1.15,2013-04-16 14:25:00,
2013-04-16 08:30:00,20.6,15.7,30.13,NW,317,0.0,0.0,81,0.00,,,0.17,76,Wunderground v.1.15,2013-04-16 14:30:00,
2013-04-16 08:40:00,20.8,15.9,30.13,NW,317,0.0,0.0,81,0.11,,,0.19,163,Wunderground v.1.15,2013-04-16 14:40:00,
2013-04-16 08:45:00,20.9,16.0,30.13,NW,317,0.0,0.0,81,0.10,,,0.20,174,Wunderground v.1.15,2013-04-16 14:45:00,
2013-04-16 08:55:00,21.2,16.0,30.13,NW,317,0.0,0.0,80,0.05,,,0.20,174,Wunderground v.1.15,2013-04-16 14:55:00,
2013-04-16 09:00:00,21.1,15.9,30.13,NW,316,0.0,0.0,80,0.00,,,0.20,204,Wunderground v.1.15,2013-04-16 15:00:00,
2013-04-16 09:05:00,21.2,16.0,30.13,NW,317,0.0,0.0,80,0.00,,,0.20,225,Wunderground v.1.15,2013-04-16 15:05:00,
2013-04-16 09:10:00,21.5,16.3,30.12,NW,317,0.0,1.0,80,0.00,,,0.20,229,Wunderground v.1.15,2013-04-16 15:10:00,
2013-04-16 09:20:00,21.9,16.4,30.12,NW,317,0.0,0.0,79,0.00,,,0.20,229,Wunderground v.1.15,2013-04-16 15:20:00,
2013-04-16 09:30:00,22.2,16.4,30.12,NW,317,0.0,0.0,78,0.00,,,0.21,221,Wunderground v.1.15,2013-04-16 15:30:00,
2013-04-16 09:35:00,22.5,16.7,30.12,NW,317,0.0,0.0,78,0.00,,,0.21,234,Wunderground v.1.15,2013-04-16 15:35:00,
2013-04-16 09:45:00,23.0,16.9,30.12,NW,316,0.0,0.0,77,0.06,,,0.22,236,Wunderground v.1.15,2013-04-16 15:45:00,
2013-04-16 09:50:00,23.3,17.5,30.12,NW,317,0.0,1.0,78,0.05,,,0.22,237,Wunderground v.1.15,2013-04-16 15:50:00,
2013-04-16 10:00:00,23.7,17.2,30.12,NW,317,0.0,1.0,76,0.00,,,0.22,265,Wunderground v.1.15,2013-04-16 16:00:00,
2013-04-16 10:05:00,23.9,17.4,30.12,NW,317,0.0,1.0,76,0.00,,,0.22,269,Wunderground v.1.15,2013-04-16 16:05:00,
2013-04-16 10:15:00,23.8,17.0,30.12,NW,317,0.0,0.0,75,0.00,,,0.22,295,Wunderground v.1.15,2013-04-16 16:15:00,
2013-04-16 10:20:00,24.0,17.2,30.12,NW,317,0.0,0.0,75,0.00,,,0.23,339,Wunderground v.1.15,2013-04-16 16:20:00,
2013-04-16 10:25:00,24.2,17.1,30.12,NW,317,0.0,1.0,74,0.00,,,0.23,381,Wunderground v.1.15,2013-04-16 16:25:00,
2013-04-16 10:30:00,23.5,15.8,30.12,NW,316,1.0,1.0,72,0.00,,,0.23,396,Wunderground v.1.15,2013-04-16 16:30:00,
2013-04-16 10:40:00,22.9,15.8,30.13,NW,316,0.0,1.0,74,0.00,,,0.23,452,Wunderground v.1.15,2013-04-16 16:40:00,
2013-04-16 10:45:00,22.8,15.8,30.13,NW,317,0.0,1.0,74,0.00,,,0.23,454,Wunderground v.1.15,2013-04-16 16:45:00,
2013-04-16 10:50:00,22.9,16.2,30.13,NW,320,1.0,2.0,75,0.00,,,0.23,476,Wunderground v.1.15,2013-04-16 16:50:00,
2013-04-16 10:55:00,23.1,16.4,30.12,NW,320,1.0,2.0,75,0.00,,,0.23,487,Wunderground v.1.15,2013-04-16 16:55:00,
2013-04-16 11:05:00,23.3,16.5,30.13,NW,321,1.0,3.0,75,0.00,,,0.23,555,Wunderground v.1.15,2013-04-16 17:05:00,
2013-04-16 11:15:00,23.9,17.4,30.13,NW,321,1.0,2.0,76,0.00,,,0.23,596,Wunderground v.1.15,2013-04-16 17:15:00,
2013-04-16 11:25:00,24.7,17.9,30.13,NW,321,1.0,1.0,75,0.00,,,0.23,663,Wunderground v.1.15,2013-04-16 17:25:00,
2013-04-16 11:30:00,25.7,18.9,30.13,NW,321,1.0,1.0,75,0.00,,,0.23,626,Wunderground v.1.15,2013-04-16 17:30:00,
2013-04-16 11:40:00,26.5,18.4,30.13,NW,321,1.0,1.0,71,0.00,,,0.23,701,Wunderground v.1.15,2013-04-16 17:40:00,
2013-04-16 11:45:00,26.1,18.0,30.13,NW,320,1.0,1.0,71,0.00,,,0.23,735,Wunderground v.1.15,2013-04-16 17:45:00,
2013-04-16 11:55:00,27.0,19.2,30.13,NNW,327,1.0,1.0,72,0.00,,,0.23,784,Wunderground v.1.15,2013-04-16 17:55:00,
2013-04-16 12:00:00,27.5,19.3,30.13,NNW,327,1.0,1.0,71,0.00,,,0.23,752,Wunderground v.1.15,2013-04-16 18:00:00,
2013-04-16 12:05:00,27.9,19.7,30.13,NNW,327,1.0,1.0,71,0.00,,,0.23,791,Wunderground v.1.15,2013-04-16 18:05:00,
2013-04-16 12:15:00,28.3,19.1,30.13,NNW,327,1.0,1.0,68,0.00,,,0.23,673,Wunderground v.1.15,2013-04-16 18:15:00,
2013-04-16 12:25:00,28.3,19.1,30.13,NNW,329,1.0,1.0,68,0.00,,,0.23,731,Wunderground v.1.15,2013-04-16 18:25:00,
2013-04-16 12:30:00,28.5,18.9,30.12,NNW,330,1.0,1.0,67,0.00,,,0.23,712,Wunderground v.1.15,2013-04-16 18:30:00,
2013-04-16 12:40:00,28.5,18.6,30.13,NNW,333,1.0,1.0,66,0.00,,,0.23,749,Wunderground v.1.15,2013-04-16 18:40:00,
2013-04-16 12:45:00,28.7,18.8,30.12,NNW,333,1.0,1.0,66,0.00,,,0.23,784,Wunderground v.1.15,2013-04-16 18:45:00,
2013-04-16 12:55:00,29.2,19.2,30.12,NNW,332,1.0,2.0,66,0.00,,,0.23,770,Wunderground v.1.15,2013-04-16 18:55:00,
2013-04-16 13:05:00,29.4,19.1,30.13,NW,324,1.0,1.0,65,0.00,,,0.23,882,Wunderground v.1.15,2013-04-16 19:05:00,
2013-04-16 13:15:00,29.8,19.5,30.13,NNW,347,1.0,2.0,65,0.00,,,0.23,547,Wunderground v.1.15,2013-04-16 19:15:00,
2013-04-16 13:20:00,29.5,18.8,30.13,NNE,27,1.0,1.0,64,0.00,,,0.23,520,Wunderground v.1.15,2013-04-16 19:20:00,
2013-04-16 13:30:00,29.3,19.3,30.13,NNE,27,1.0,1.0,66,0.00,,,0.23,636,Wunderground v.1.15,2013-04-16 19:30:00,
2013-04-16 13:40:00,29.5,19.5,30.13,North,8,1.0,1.0,66,0.00,,,0.23,824,Wunderground v.1.15,2013-04-16 19:40:00,
2013-04-16 13:45:00,29.9,20.3,30.13,NNE,16,1.0,1.0,67,0.00,,,0.23,863,Wunderground v.1.15,2013-04-16 19:45:00,
2013-04-16 13:55:00,29.7,19.4,30.13,North,349,1.0,1.0,65,0.00,,,0.23,777,Wunderground v.1.15,2013-04-16 19:55:00,
2013-04-16 14:00:00,29.5,19.9,30.13,WNW,292,2.0,2.0,67,0.00,,,0.23,763,Wunderground v.1.15,2013-04-16 20:00:00,
2013-04-16 14:05:00,28.7,19.5,30.13,WNW,299,2.0,3.0,68,0.00,,,0.23,378,Wunderground v.1.15,2013-04-16 20:05:00,
2013-04-16 14:10:00,27.6,18.4,30.13,North,358,2.0,2.0,68,0.00,,,0.23,411,Wunderground v.1.15,2013-04-16 20:10:00,
2013-04-16 14:15:00,26.7,18.2,30.13,NNW,328,2.0,2.0,70,0.00,,,0.23,253,Wunderground v.1.15,2013-04-16 20:15:00,
2013-04-16 14:20:00,26.0,17.9,30.14,NNW,337,1.0,4.0,71,0.00,,,0.24,290,Wunderground v.1.15,2013-04-16 20:20:00,
2013-04-16 14:25:00,25.5,18.0,30.14,NW,310,2.0,4.0,73,0.00,,,0.24,301,Wunderground v.1.15,2013-04-16 20:25:00,
2013-04-16 14:30:00,25.3,18.5,30.13,NNW,328,1.0,2.0,75,0.00,,,0.24,403,Wunderground v.1.15,2013-04-16 20:30:00,
2013-04-16 14:40:00,26.0,18.8,30.13,NNW,348,1.0,1.0,74,0.00,,,0.24,598,Wunderground v.1.15,2013-04-16 20:40:00,
2013-04-16 14:45:00,26.6,19.4,30.14,NNW,347,1.0,1.0,74,0.00,,,0.24,592,Wunderground v.1.15,2013-04-16 20:45:00,
2013-04-16 14:50:00,27.3,20.1,30.13,NNW,347,1.0,1.0,74,0.00,,,0.24,700,Wunderground v.1.15,2013-04-16 20:50:00,
2013-04-16 14:55:00,28.2,20.7,30.14,North,355,1.0,1.0,73,0.00,,,0.24,807,Wunderground v.1.15,2013-04-16 20:55:00,
2013-04-16 15:00:00,28.8,20.9,30.14,North,349,1.0,1.0,72,0.00,,,0.24,765,Wunderground v.1.15,2013-04-16 21:00:00,
2013-04-16 15:05:00,29.2,20.6,30.14,North,355,1.0,1.0,70,0.00,,,0.24,601,Wunderground v.1.15,2013-04-16 21:05:00,
2013-04-16 15:10:00,29.3,20.0,30.14,North,6,1.0,2.0,68,0.00,,,0.24,606,Wunderground v.1.15,2013-04-16 21:10:00,
2013-04-16 15:15:00,28.9,19.7,30.14,North,355,1.0,2.0,68,0.00,,,0.24,554,Wunderground v.1.15,2013-04-16 21:15:00,
2013-04-16 15:25:00,28.7,19.1,30.14,NNW,339,2.0,2.0,67,0.00,,,0.24,789,Wunderground v.1.15,2013-04-16 21:25:00,
2013-04-16 15:30:00,28.1,18.5,30.14,NNE,20,2.0,5.0,67,0.00,,,0.24,517,Wunderground v.1.15,2013-04-16 21:30:00,
2013-04-16 15:40:00,27.5,17.6,30.14,NNW,341,2.0,2.0,66,0.00,,,0.24,661,Wunderground v.1.15,2013-04-16 21:40:00,
2013-04-16 15:45:00,27.5,18.0,30.14,NNW,341,1.0,2.0,67,0.00,,,0.24,489,Wunderground v.1.15,2013-04-16 21:45:00,
2013-04-16 15:50:00,27.6,18.4,30.14,NW,320,1.0,1.0,68,0.00,,,0.24,503,Wunderground v.1.15,2013-04-16 21:50:00,
2013-04-16 15:55:00,27.8,17.9,30.14,North,349,1.0,1.0,66,0.00,,,0.24,563,Wunderground v.1.15,2013-04-16 21:55:00,
2013-04-16 16:00:00,27.7,18.2,30.15,North,349,1.0,1.0,67,0.00,,,0.24,480,Wunderground v.1.15,2013-04-16 22:00:00,
2013-04-16 16:10:00,28.0,18.5,30.15,North,359,1.0,1.0,67,0.00,,,0.24,438,Wunderground v.1.15,2013-04-16 22:10:00,
2013-04-16 16:15:00,28.1,19.2,30.15,North,349,1.0,1.0,69,0.00,,,0.24,468,Wunderground v.1.15,2013-04-16 22:15:00,
2013-04-16 16:20:00,28.1,18.5,30.15,NNW,344,0.0,0.0,67,0.00,,,0.24,452,Wunderground v.1.15,2013-04-16 22:20:00,
2013-04-16 16:25:00,28.2,19.3,30.15,NNW,343,0.0,0.0,69,0.00,,,0.24,424,Wunderground v.1.15,2013-04-16 22:25:00,
2013-04-16 16:30:00,28.3,19.1,30.15,North,4,0.0,0.0,68,0.00,,,0.24,434,Wunderground v.1.15,2013-04-16 22:30:00,
2013-04-16 16:40:00,28.3,19.1,30.16,North,4,0.0,0.0,68,0.00,,,0.24,373,Wunderground v.1.15,2013-04-16 22:40:00,
2013-04-16 16:45:00,28.2,19.3,30.16,North,4,0.0,0.0,69,0.00,,,0.24,329,Wunderground v.1.15,2013-04-16 22:45:00,
2013-04-16 16:50:00,28.0,19.1,30.16,North,4,0.0,0.0,69,0.00,,,0.24,327,Wunderground v.1.15,2013-04-16 22:50:00,
2013-04-16 17:00:00,27.9,19.4,30.16,North,1,1.0,1.0,70,0.00,,,0.24,378,Wunderground v.1.15,2013-04-16 23:00:00,
2013-04-16 17:10:00,28.2,20.0,30.16,NNW,344,1.0,1.0,71,0.00,,,0.24,390,Wunderground v.1.15,2013-04-16 23:10:00,
2013-04-16 17:15:00,28.3,19.8,30.17,NNW,345,0.0,1.0,70,0.00,,,0.24,345,Wunderground v.1.15,2013-04-16 23:15:00,
2013-04-16 17:25:00,28.0,19.1,30.17,NNW,344,0.0,0.0,69,0.00,,,0.24,297,Wunderground v.1.15,2013-04-16 23:25:00,
2013-04-16 17:30:00,28.0,19.5,30.17,NNW,344,0.0,0.0,70,0.00,,,0.24,262,Wunderground v.1.15,2013-04-16 23:30:00,
2013-04-16 17:40:00,27.8,18.9,30.17,NNW,345,0.0,0.0,69,0.00,,,0.24,258,Wunderground v.1.15,2013-04-16 23:40:00,
2013-04-16 17:50:00,27.2,19.0,30.17,NNW,345,0.0,0.0,71,0.00,,,0.24,227,Wunderground v.1.15,2013-04-16 23:50:00,
2013-04-16 18:00:00,26.9,18.7,30.17,NNW,345,0.0,0.0,71,0.00,,,0.24,202,Wunderground v.1.15,2013-04-17 00:00:00,
2013-04-16 18:05:00,26.9,18.7,30.17,NNW,345,0.0,0.0,71,0.00,,,0.24,204,Wunderground v.1.15,2013-04-17 00:05:00,
2013-04-16 18:15:00,26.6,18.8,30.17,NNW,345,0.0,1.0,72,0.00,,,0.24,179,Wunderground v.1.15,2013-04-17 00:15:00,
2013-04-16 18:25:00,26.3,18.5,30.18,NNW,345,0.0,0.0,72,0.00,,,0.24,153,Wunderground v.1.15,2013-04-17 00:25:00,
2013-04-16 18:30:00,26.2,18.4,30.18,NNW,343,0.0,2.0,72,0.00,,,0.24,155,Wunderground v.1.15,2013-04-17 00:30:00,
2013-04-16 18:40:00,25.6,18.5,30.18,NNW,343,1.0,1.0,74,0.00,,,0.24,135,Wunderground v.1.15,2013-04-17 00:40:00,
2013-04-16 18:45:00,25.3,18.5,30.18,NNW,343,0.0,1.0,75,0.00,,,0.24,123,Wunderground v.1.15,2013-04-17 00:45:00,
2013-04-16 18:55:00,24.8,18.0,30.18,NNW,343,0.0,0.0,75,0.00,,,0.24,76,Wunderground v.1.15,2013-04-17 00:55:00,
2013-04-16 19:05:00,24.2,16.8,30.18,NNW,344,0.0,0.0,73,0.00,,,0.24,44,Wunderground v.1.15,2013-04-17 01:05:00,
2013-04-16 19:15:00,23.5,16.4,30.19,NNW,342,0.0,0.0,74,0.00,,,0.24,28,Wunderground v.1.15,2013-04-17 01:15:00,
2013-04-16 19:25:00,22.7,15.7,30.19,NNW,341,0.0,1.0,74,0.00,,,0.24,23,Wunderground v.1.15,2013-04-17 01:25:00,
2013-04-16 19:35:00,22.2,15.5,30.19,NNW,341,0.0,0.0,75,0.00,,,0.24,19,Wunderground v.1.15,2013-04-17 01:35:00,
2013-04-16 19:40:00,22.1,15.4,30.19,NNW,342,0.0,1.0,75,0.00,,,0.24,16,Wunderground v.1.15,2013-04-17 01:40:00,
2013-04-16 19:45:00,21.9,14.9,30.20,NNW,341,1.0,2.0,74,0.00,,,0.24,14,Wunderground v.1.15,2013-04-17 01:45:00,
2013-04-16 19:55:00,21.5,14.2,30.20,NNW,341,1.0,3.0,73,0.00,,,0.24,11,Wunderground v.1.15,2013-04-17 01:55:00,
2013-04-16 20:00:00,21.0,13.7,30.20,NNW,337,2.0,3.0,73,0.00,,,0.24,7,Wunderground v.1.15,2013-04-17 02:00:00,
2013-04-16 20:05:00,20.5,13.5,30.20,NNW,327,2.0,3.0,74,0.00,,,0.24,5,Wunderground v.1.15,2013-04-17 02:05:00,
2013-04-16 20:10:00,20.1,13.4,30.20,NW,310,2.0,2.0,75,0.00,,,0.24,0,Wunderground v.1.15,2013-04-17 02:10:00,
2013-04-16 20:15:00,19.7,13.1,30.20,NW,310,2.0,2.0,75,0.00,,,0.24,0,Wunderground v.1.15,2013-04-17 02:15:00,
2013-04-16 20:20:00,19.4,12.8,30.21,NW,310,1.0,1.0,75,0.00,,,0.24,0,Wunderground v.1.15,2013-04-17 02:20:00,
2013-04-16 20:25:00,19.1,12.8,30.21,NW,310,1.0,1.0,76,0.00,,,0.24,0,Wunderground v.1.15,2013-04-17 02:25:00,
2013-04-16 20:30:00,19.0,12.7,30.21,NW,310,1.0,2.0,76,0.00,,,0.24,0,Wunderground v.1.15,2013-04-17 02:30:00,
2013-04-16 20:35:00,18.8,12.5,30.21,NW,310,2.0,2.0,76,0.00,,,0.24,0,Wunderground v.1.15,2013-04-17 02:35:00,
2013-04-16 20:45:00,18.7,12.7,30.21,NW,310,2.0,2.0,77,0.00,,,0.24,0,Wunderground v.1.15,2013-04-17 02:45:00,
2013-04-16 20:55:00,18.6,12.6,30.22,NW,310,3.0,3.0,77,0.00,,,0.24,0,Wunderground v.1.15,2013-04-17 02:55:00,
2013-04-16 21:05:00,18.6,12.9,30.23,NW,310,1.0,2.0,78,0.00,,,0.24,0,Wunderground v.1.15,2013-04-17 03:05:00,
2013-04-16 21:15:00,18.7,13.0,30.23,NW,310,2.0,2.0,78,0.00,,,0.24,0,Wunderground v.1.15,2013-04-17 03:15:00,
2013-04-16 21:25:00,18.8,13.1,30.23,NW,310,1.0,2.0,78,0.00,,,0.24,0,Wunderground v.1.15,2013-04-17 03:25:00,
2013-04-16 21:30:00,18.8,13.4,30.24,NW,310,0.0,0.0,79,0.00,,,0.24,0,Wunderground v.1.15,2013-04-17 03:30:00,
2013-04-16 21:40:00,18.9,13.5,30.24,NW,310,0.0,2.0,79,0.00,,,0.24,0,Wunderground v.1.15,2013-04-17 03:40:00,
2013-04-16 21:45:00,18.9,13.5,30.24,NW,310,1.0,2.0,79,0.00,,,0.24,0,Wunderground v.1.15,2013-04-17 03:45:00,
2013-04-16 21:50:00,18.8,13.4,30.24,NW,310,1.0,1.0,79,0.00,,,0.24,0,Wunderground v.1.15,2013-04-17 03:50:00,
2013-04-16 21:55:00,18.7,13.3,30.25,NW,310,1.0,1.0,79,0.00,,,0.24,0,Wunderground v.1.15,2013-04-17 03:55:00,
2013-04-16 22:00:00,18.7,13.3,30.25,NW,310,0.0,0.0,79,0.00,,,0.24,0,Wunderground v.1.15,2013-04-17 04:00:00,
2013-04-16 22:05:00,18.7,13.3,30.25,NW,310,0.0,0.0,79,0.00,,,0.24,0,Wunderground v.1.15,2013-04-17 04:05:00,
2013-04-16 22:10:00,18.8,13.4,30.25,NW,310,0.0,0.0,79,0.00,,,0.24,0,Wunderground v.1.15,2013-04-17 04:10:00,
2013-04-16 22:15:00,18.8,13.4,30.25,NW,310,0.0,1.0,79,0.00,,,0.24,0,Wunderground v.1.15,2013-04-17 04:15:00,
2013-04-16 22:20:00,18.8,13.7,30.25,NW,310,1.0,1.0,80,0.00,,,0.24,0,Wunderground v.1.15,2013-04-17 04:20:00,
2013-04-16 22:25:00,18.8,13.7,30.25,NW,310,0.0,1.0,80,0.00,,,0.24,0,Wunderground v.1.15,2013-04-17 04:25:00,
2013-04-16 22:30:00,18.8,13.7,30.25,NW,310,0.0,0.0,80,0.00,,,0.24,0,Wunderground v.1.15,2013-04-17 04:30:00,
2013-04-16 22:40:00,18.9,14.0,30.25,NW,310,0.0,0.0,81,0.00,,,0.24,0,Wunderground v.1.15,2013-04-17 04:40:00,
2013-04-16 22:45:00,19.0,14.1,30.25,NW,310,0.0,0.0,81,0.00,,,0.24,0,Wunderground v.1.15,2013-04-17 04:45:00,
2013-04-16 22:55:00,19.3,14.4,30.25,NW,310,0.0,0.0,81,0.00,,,0.24,0,Wunderground v.1.15,2013-04-17 04:55:00,
2013-04-16 23:00:00,19.3,14.4,30.25,NW,310,0.0,1.0,81,0.00,,,0.24,0,Wunderground v.1.15,2013-04-17 05:00:00,
2013-04-16 23:10:00,19.3,14.4,30.25,NW,310,0.0,0.0,81,0.00,,,0.24,0,Wunderground v.1.15,2013-04-17 05:10:00,
2013-04-16 23:15:00,19.3,14.4,30.25,NW,310,0.0,0.0,81,0.00,,,0.24,0,Wunderground v.1.15,2013-04-17 05:15:00,
2013-04-16 23:20:00,19.3,14.7,30.25,NW,310,0.0,0.0,82,0.00,,,0.24,0,Wunderground v.1.15,2013-04-17 05:20:00,
2013-04-16 23:25:00,19.3,14.7,30.25,NW,310,0.0,0.0,82,0.00,,,0.24,0,Wunderground v.1.15,2013-04-17 05:25:00,
2013-04-16 23:30:00,19.3,14.4,30.25,NW,310,0.0,0.0,81,0.00,,,0.24,0,Wunderground v.1.15,2013-04-17 05:30:00,
2013-04-16 23:40:00,19.2,14.6,30.25,NW,310,0.0,0.0,82,0.00,,,0.24,0,Wunderground v.1.15,2013-04-17 05:40:00,
2013-04-16 23:50:00,19.2,14.6,30.25,NW,310,0.0,0.0,82,0.00,,,0.24,0,Wunderground v.1.15,2013-04-17 05:50:00,
2013-04-16 23:55:00,19.2,14.3,30.25,NW,310,0.0,0.0,81,0.00,,,0.24,0,Wunderground v.1.15,2013-04-17 05:55:00,